This is the latest recevied weather packets stored in our database for station/object KI6PPU. If no packets are shown the sender has not sent any weather packets the latest 10 day(s).
| Time | Temp. | Humidity | Pressure | Rain* | Wind** | Luminosity | Snow |
|---|---|---|---|---|---|---|---|
| 1777605109 | 18.33° C | 70% | 1014.7 hPa | 0 mm | - | 0 W/m² | - |
| 1777604805 | 18.33° C | 67% | 1014.9 hPa | 0 mm | - | 0 W/m² | - |
| 1777604502 | 18.89° C | 66% | 1014.7 hPa | 0 mm | - | 0 W/m² | - |
| 1777604202 | 19.44° C | 64% | 1015 hPa | 0 mm | - | 0 W/m² | - |
| 1777603898 | 19.44° C | 64% | 1014.6 hPa | 0 mm | - | 1 W/m² | - |
| 1777603596 | 20° C | 64% | 1014.7 hPa | 0 mm | - | 4 W/m² | - |
| 1777603291 | 20° C | 62% | 1014.9 hPa | 0 mm | - | 6 W/m² | - |
| 1777602986 | 20.56° C | 63% | 1014.8 hPa | 0 mm | - | 10 W/m² | - |
| 1777602682 | 21.67° C | 59% | 1014.7 hPa | 0 mm | - | 12 W/m² | - |
| 1777602378 | 21.67° C | 57% | 1014.4 hPa | 0 mm | - | 16 W/m² | - |
| 1777602074 | 22.22° C | 58% | 1014.7 hPa | 0 mm | - | 18 W/m² | - |
| 1777601769 | 22.22° C | 57% | 1014.7 hPa | 0 mm | - | 21 W/m² | - |
| 1777601464 | 22.78° C | 57% | 1014.6 hPa | 0 mm | - | 23 W/m² | - |
| 1777601160 | 22.78° C | 56% | 1014.8 hPa | 0 mm | - | 24 W/m² | - |
| 1777600858 | 23.33° C | 56% | 1014.8 hPa | 0 mm | - | 28 W/m² | - |
| 1777600553 | 23.33° C | 57% | 1014.8 hPa | 0 mm | - | 29 W/m² | - |
| 1777600249 | 23.89° C | 54% | 1014.7 hPa | 0 mm | - | 32 W/m² | - |
| 1777599945 | 23.89° C | 54% | 1014.6 hPa | 0 mm | - | 33 W/m² | - |
| 1777599642 | 24.44° C | 50% | 1014.8 hPa | 0 mm | - | 34 W/m² | - |
| 1777599338 | 23.89° C | 51% | 1014.6 hPa | 0 mm | - | 37 W/m² | - |
| 1777599029 | 23.89° C | 50% | 1014.8 hPa | 0 mm | - | 37 W/m² | - |
| 1777598726 | 24.44° C | 49% | 1014.8 hPa | 0 mm | - | 39 W/m² | - |
| 1777598421 | 25° C | 50% | 1014.6 hPa | 0 mm | - | 42 W/m² | - |
| 1777598121 | 25° C | 49% | 1014.7 hPa | 0 mm | - | 42 W/m² | - |
| 1777597815 | 25° C | 48% | 1014.5 hPa | 0 mm | - | 44 W/m² | - |
* Rain latest hour (hover to see other rain measurements)
** Current wind speed in m/s (hover to see current wind gust speed)